User: anonymous   Login
Location: Unspecified
(0.0000°N, 0.0000°E)
Time: 17:35:25
(UTC+00:00)
Language:

Hubble Space Telescope - Orbit

View from above orbital plane
View from above orbital plane
View from above satellite
View from above satellite

Ground track
Ground track

The orbit data is extracted from the following two-line orbital elements,

1 20580U 90037B   18345.49795608  .00000454  00000-0  16803-4 0  9998
2 20580  28.4708  22.8928 0002421 247.2067 256.4501 15.09142577372280
Epoch (UTC): 11 December 2018 11:57:03
Eccentricity: 0.0002421
inclination: 28.4708°
perigee height: 537 km
apogee height: 540 km
right ascension of ascending node: 22.8928°
argument of perigee: 247.2067°
revolutions per day: 15.09142577
mean anomaly at epoch: 256.4501°
orbit number at epoch: 37228

The dashed part of the orbit path shows where the satellite is in the earth's shadow,  

DLR